KAL926 EHAM-RKSI

Flight info

Callsign KAL926
Flight time N/A
Altitude 33000
Route ARNEM L620 OMELO DCT EVIKU DCT OMIFU DCT TIBLA DCT MAKAL DCT TEKLA DCT TIVON DCT PITOK DCT BADOR DCT ROMAG DCT RILAS DCT EBILO DCT REBLA DCT SOBSA DCT LAPKA DCT DIRAL DCT DINRO N743 UDROS UM859 KARDE UN644 FALAZ/N0484F350 UN644 ROLIN DCT TAGAR DCT BT DCT BARAD M747 SUBUT T916 BALUN/K0898F350 T916 PIGAL M610 BERTO/K0895F370 M610 RULAD/K0898S1130 A343 POSOT B215 FKG W188 LIKMI W270 DKO W69 GUVBA/K0891S1190 W69 HUR B339 LADIX W34 VAPGU W100 MUDOT DCT UNSEK A326 DONVO G597 AGAVO/N0486F390 Y644 REBIT REBIT1Y
Aircraft B77W/H-SDE1E2E3FGHIJ2J3J4J5M1RWXY/LB1D1

Departure

Time N/A
Airport Amsterdam Airport Schiphol (EHAM)

Arrival

Time 2026-05-04 05:15
Airport Incheon International Airport (RKSI)
Time Latitude Longitude Altitude Speed Heading
2026-05-04 04:18 38.73966 119.97299 37031 ft 499 kts 115°
2026-05-04 04:18 38.72350 120.01224 37022 ft 499 kts 121°
2026-05-04 04:19 38.68611 120.08715 37026 ft 499 kts 123°
2026-05-04 04:19 38.64897 120.16239 37029 ft 500 kts 122°
2026-05-04 04:20 38.61725 120.24144 37033 ft 501 kts 111°
2026-05-04 04:20 38.59713 120.32604 37025 ft 500 kts 101°
2026-05-04 04:21 38.58359 120.41330 37028 ft 500 kts 100°
2026-05-04 04:21 38.56840 120.49996 37018 ft 501 kts 106°
2026-05-04 04:22 38.54266 120.58260 37032 ft 501 kts 113°
2026-05-04 04:22 38.51439 120.66405 37028 ft 501 kts 114°
2026-05-04 04:23 38.48632 120.74541 37028 ft 501 kts 113°
2026-05-04 04:23 38.45845 120.82692 37029 ft 501 kts 113°
2026-05-04 04:24 38.43083 120.90794 37028 ft 501 kts 113°
2026-05-04 04:24 38.40302 120.98933 37025 ft 501 kts 113°
2026-05-04 04:25 38.37512 121.07073 37029 ft 501 kts 113°
2026-05-04 04:25 38.34709 121.15208 37028 ft 501 kts 114°
2026-05-04 04:26 38.32380 121.21955 37028 ft 501 kts 114°
2026-05-04 04:26 38.29566 121.30090 37027 ft 501 kts 114°
2026-05-04 04:27 38.26746 121.38221 37029 ft 502 kts 114°
2026-05-04 04:27 38.23919 121.46350 37027 ft 502 kts 114°
2026-05-04 04:28 38.21083 121.54474 37028 ft 503 kts 114°
2026-05-04 04:28 38.18262 121.62539 37025 ft 503 kts 114°
2026-05-04 04:29 38.15416 121.70658 37029 ft 503 kts 114°
2026-05-04 04:29 38.12554 121.78796 37028 ft 504 kts 114°
2026-05-04 04:30 38.09687 121.86924 37028 ft 505 kts 114°
2026-05-04 04:30 38.06813 121.95055 37030 ft 505 kts 114°
2026-05-04 04:31 38.03930 122.03177 37029 ft 505 kts 114°
2026-05-04 04:31 38.01038 122.11312 37027 ft 505 kts 114°
2026-05-04 04:32 37.98142 122.19429 37027 ft 505 kts 115°
2026-05-04 04:32 37.95266 122.27476 37027 ft 504 kts 115°
2026-05-04 04:33 37.92365 122.35574 37028 ft 504 kts 115°
2026-05-04 04:33 37.89461 122.43653 37027 ft 504 kts 115°
2026-05-04 04:34 37.86550 122.51731 37027 ft 504 kts 115°
2026-05-04 04:34 37.83632 122.59805 37028 ft 504 kts 115°
2026-05-04 04:35 37.80705 122.67881 37028 ft 505 kts 115°
2026-05-04 04:35 37.77772 122.75950 37029 ft 505 kts 115°
2026-05-04 04:36 37.74831 122.84024 37028 ft 506 kts 115°
2026-05-04 04:36 37.71899 122.92052 37028 ft 507 kts 115°
2026-05-04 04:37 37.65970 123.08212 37039 ft 507 kts 116°
2026-05-04 04:38 37.62992 123.16298 37037 ft 508 kts 116°
2026-05-04 04:38 37.60002 123.24394 37033 ft 508 kts 116°
2026-05-04 04:39 37.56932 123.32417 37024 ft 508 kts 120°
2026-05-04 04:39 37.52989 123.39775 37043 ft 505 kts 129°
2026-05-04 04:40 37.48714 123.46810 37026 ft 506 kts 129°
2026-05-04 04:40 37.44481 123.53823 37045 ft 506 kts 128°
2026-05-04 04:41 37.40241 123.60909 37048 ft 506 kts 128°
2026-05-04 04:41 37.36003 123.67991 37046 ft 506 kts 128°
2026-05-04 04:42 37.31759 123.75058 37046 ft 506 kts 129°
2026-05-04 04:42 37.27513 123.82112 37042 ft 506 kts 129°
2026-05-04 04:43 37.23260 123.89160 37043 ft 506 kts 129°
2026-05-04 04:43 37.19127 123.96260 37043 ft 508 kts 121°
2026-05-04 04:44 37.17699 124.00318 37049 ft 510 kts 108°
2026-05-04 04:44 37.16922 124.04660 37046 ft 511 kts 97°
2026-05-04 04:44 37.16828 124.09110 37046 ft 511 kts 85°
2026-05-04 04:44 37.17093 124.13549 37052 ft 512 kts 84°
2026-05-04 04:45 37.17555 124.22477 37043 ft 514 kts 86°
2026-05-04 04:47 37.18301 124.54365 32330 ft 527 kts 87°
2026-05-04 04:47 37.18404 124.58956 31283 ft 527 kts 87°
2026-05-04 04:47 37.18503 124.63554 30464 ft 523 kts 87°
2026-05-04 04:47 37.18598 124.68076 29812 ft 515 kts 87°
2026-05-04 04:48 37.18690 124.72532 29155 ft 507 kts 87°
2026-05-04 04:49 37.19041 124.89734 26604 ft 483 kts 86°
2026-05-04 04:49 37.19127 124.93922 25977 ft 477 kts 86°
2026-05-04 04:49 37.19211 124.98056 25354 ft 471 kts 86°
2026-05-04 04:49 37.19293 125.02149 24746 ft 466 kts 86°
2026-05-04 04:50 37.19372 125.06190 24136 ft 461 kts 86°
2026-05-04 04:50 37.19448 125.10188 23532 ft 456 kts 86°
2026-05-04 04:50 37.19522 125.14146 22931 ft 452 kts 86°
2026-05-04 04:50 37.19593 125.18067 22333 ft 447 kts 86°
2026-05-04 04:51 37.19662 125.21942 21740 ft 443 kts 86°
2026-05-04 04:51 37.19729 125.25781 21151 ft 439 kts 86°
2026-05-04 04:51 37.19793 125.29591 20572 ft 434 kts 86°
2026-05-04 04:51 37.19856 125.33361 19978 ft 430 kts 86°
2026-05-04 04:52 37.19918 125.37098 19389 ft 427 kts 86°
2026-05-04 04:52 37.19978 125.40755 18817 ft 423 kts 86°
2026-05-04 04:52 37.20038 125.44473 18233 ft 419 kts 86°
2026-05-04 04:52 37.20059 125.48101 17635 ft 412 kts 90°
2026-05-04 04:53 37.19489 125.51535 17087 ft 404 kts 108°
2026-05-04 04:53 37.18478 125.54804 16584 ft 402 kts 109°
2026-05-04 04:53 37.17485 125.58091 16045 ft 403 kts 108°
2026-05-04 04:53 37.16515 125.61405 15497 ft 408 kts 108°
2026-05-04 04:54 37.15548 125.64762 14935 ft 409 kts 108°
2026-05-04 04:54 37.14593 125.68109 14367 ft 406 kts 108°
2026-05-04 04:54 37.13646 125.71432 13793 ft 403 kts 108°
2026-05-04 04:54 37.12708 125.74722 13244 ft 398 kts 108°
2026-05-04 04:55 37.11780 125.77971 12689 ft 394 kts 108°
2026-05-04 04:55 37.10939 125.81210 12124 ft 386 kts 101°
2026-05-04 04:55 37.10532 125.84512 11583 ft 381 kts 93°
2026-05-04 04:55 37.10330 125.87756 11045 ft 376 kts 91°
2026-05-04 04:56 37.10143 125.90982 10824 ft 364 kts 92°
2026-05-04 04:56 37.09920 125.94087 10647 ft 352 kts 93°
2026-05-04 04:56 37.09668 125.97091 10509 ft 340 kts 94°
2026-05-04 04:56 37.09412 125.99982 10365 ft 329 kts 94°
2026-05-04 04:57 37.09205 126.02796 10232 ft 318 kts 89°
2026-05-04 04:57 37.09216 126.05512 10104 ft 306 kts 85°
2026-05-04 04:57 37.09280 126.08135 9950 ft 298 kts 85°
2026-05-04 04:57 37.09331 126.10730 9618 ft 296 kts 86°
2026-05-04 04:58 37.09368 126.13293 9331 ft 293 kts 86°
2026-05-04 04:58 37.09396 126.15848 9031 ft 291 kts 87°
2026-05-04 04:58 37.09420 126.18378 8709 ft 290 kts 87°
2026-05-04 04:58 37.09447 126.20911 8400 ft 290 kts 87°
2026-05-04 04:59 37.09475 126.23427 8085 ft 285 kts 85°
2026-05-04 04:59 37.09917 126.25781 7744 ft 275 kts 57°
2026-05-04 04:59 37.10988 126.27690 7452 ft 264 kts 50°
2026-05-04 04:59 37.12054 126.29516 7340 ft 255 kts 51°
2026-05-04 05:00 37.13069 126.31296 7223 ft 247 kts 51°
2026-05-04 05:00 37.14053 126.33015 7099 ft 236 kts 48°
2026-05-04 05:00 37.16684 126.34379 6850 ft 211 kts 350°
2026-05-04 05:01 37.18127 126.33897 6681 ft 218 kts 331°
2026-05-04 05:01 37.19399 126.32876 6459 ft 217 kts 323°
2026-05-04 05:01 37.20626 126.31759 6260 ft 219 kts 323°
2026-05-04 05:01 37.21857 126.30626 6043 ft 220 kts 322°
2026-05-04 05:02 37.23091 126.29500 5836 ft 219 kts 323°
2026-05-04 05:02 37.24331 126.28379 5624 ft 219 kts 323°
2026-05-04 05:02 37.25659 126.27537 5368 ft 214 kts 350°
2026-05-04 05:02 37.27114 126.27794 5200 ft 216 kts 22°
2026-05-04 05:03 37.28354 126.28915 5012 ft 226 kts 45°
2026-05-04 05:03 37.29329 126.30502 4823 ft 232 kts 51°
2026-05-04 05:04 37.32079 126.35442 4094 ft 225 kts 51°
2026-05-04 05:04 37.32983 126.37051 3872 ft 220 kts 53°
2026-05-04 05:04 37.33509 126.38808 3632 ft 224 kts 86°
2026-05-04 05:06 37.25378 126.47931 3605 ft 229 kts 145°
2026-05-04 05:06 37.24091 126.49067 3601 ft 230 kts 145°
2026-05-04 05:06 37.22781 126.50225 3602 ft 231 kts 145°
2026-05-04 05:07 37.21464 126.51390 3612 ft 232 kts 145°
2026-05-04 05:07 37.20158 126.52581 3596 ft 230 kts 137°
2026-05-04 05:07 37.19328 126.54249 3601 ft 227 kts 99°
2026-05-04 05:09 37.26858 126.62952 3551 ft 205 kts 328°
2026-05-04 05:09 37.28039 126.62043 3456 ft 193 kts 324°
2026-05-04 05:10 37.29134 126.61106 3197 ft 190 kts 323°
2026-05-04 05:10 37.30212 126.60160 2901 ft 188 kts 323°
2026-05-04 05:10 37.31287 126.59208 2611 ft 188 kts 323°
2026-05-04 05:10 37.32344 126.58272 2556 ft 183 kts 323°
2026-05-04 05:11 37.33372 126.57361 2518 ft 177 kts 322°
2026-05-04 05:11 37.34328 126.56511 2512 ft 176 kts 322°
2026-05-04 05:11 37.35323 126.55629 2489 ft 173 kts 322°
2026-05-04 05:11 37.36287 126.54773 2264 ft 164 kts 322°
2026-05-04 05:12 37.37208 126.53954 2048 ft 161 kts 321°
2026-05-04 05:12 37.38132 126.53132 1832 ft 163 kts 321°
2026-05-04 05:12 37.39039 126.52327 1610 ft 155 kts 321°
2026-05-04 05:12 37.39904 126.51558 1423 ft 153 kts 321°
2026-05-04 05:13 37.40759 126.50800 1230 ft 145 kts 321°
2026-05-04 05:13 37.41296 126.50322 1086 ft 141 kts 320°
2026-05-04 05:13 37.42088 126.49617 897 ft 138 kts 320°
2026-05-04 05:13 37.42879 126.48915 726 ft 140 kts 320°
2026-05-04 05:14 37.43666 126.48214 532 ft 137 kts 320°
2026-05-04 05:14 37.44436 126.47531 357 ft 134 kts 320°
2026-05-04 05:14 37.45197 126.46842 193 ft 135 kts 322°
2026-05-04 05:14 37.45973 126.46170 51 ft 133 kts 321°
2026-05-04 05:15 37.46650 126.45565 37 ft 100 kts 324°
2026-05-04 05:15 37.47070 126.45193 37 ft 54 kts 324°
2026-05-04 05:15 37.47286 126.45000 37 ft 32 kts 324°
2026-05-04 05:15 37.47423 126.44821 37 ft 23 kts 300°
2026-05-04 05:16 37.47463 126.44658 37 ft 14 kts 248°
2026-05-04 05:16 37.47384 126.44608 37 ft 11 kts 218°
2026-05-04 05:16 37.47343 126.44547 37 ft 9 kts 232°
2026-05-04 05:16 37.47303 126.44478 37 ft 10 kts 234°
2026-05-04 05:17 37.47254 126.44392 37 ft 18 kts 234°
2026-05-04 05:17 37.47190 126.44279 38 ft 14 kts 234°
2026-05-04 05:17 37.47133 126.44177 38 ft 14 kts 235°
2026-05-04 05:17 37.47077 126.44078 38 ft 13 kts 235°
2026-05-04 05:18 37.47021 126.44013 38 ft 11 kts 199°
2026-05-04 05:18 37.46967 126.43981 38 ft 8 kts 223°
2026-05-04 05:18 37.46934 126.43938 38 ft 6 kts 226°
2026-05-04 05:18 37.46921 126.43921 38 ft 0 kts 227°